DW4391 Weather Reports


time (UTC)temp
C
wind
direction
speed
KPH
gust
KPH
rain 1hr
cm
rain 24hr
cm
rain mn
cm
humidity
%
barometer
mb
20260901074559 21 110 0.0 0.0 0.00 0.00 0.00 93 1015.7
20260901073059 21 110 0.0 0.0 0.00 0.00 0.00 92 1015.6
20260901071556 21 110 0.0 0.0 0.00 0.00 0.00 93 1015.7
20260901070110 21 110 0.0 0.0 0.00 0.00 0.00 92 1015.8
20260901064604 22 110 0.0 0.0 0.00 0.00 0.00 92 1015.9
20260901063059 22 110 0.0 0.0 0.00 0.00 0.00 91 1016.0
20260901061601 22 110 0.0 0.0 0.00 0.00 0.00 91 1016.1
20260901060045 22 110 0.0 0.0 0.00 0.00 0.00 91 1016.1
20260901054549 22 110 0.0 0.0 0.00 0.00 0.00 89 1016.1
20260901053042 22 110 0.0 0.0 0.00 0.00 0.00 89 1016.2
20260901051541 22 110 0.0 0.0 0.00 0.00 0.00 89 1016.3
20260901050039 22 110 0.0 0.0 0.00 0.00 0.00 88 1016.3
20260901044549 22 110 0.0 0.0 0.00 0.00 0.00 88 1016.1
20260901043036 23 110 0.0 0.0 0.00 0.00 0.00 87 1016.1
20260901041535 23 110 0.0 0.0 0.00 0.00 0.00 87 1016.1
20260901040037 23 110 0.0 0.0 0.00 0.00 0.00 86 1016.1
20260901034531 23 110 0.0 0.0 0.00 0.00 0.00 86 1016.2
20260901033030 23 110 0.0 0.0 0.00 0.00 0.00 84 1016.2
20260901031529 23 110 0.0 0.0 0.00 0.00 0.00 84 1016.2
20260901030034 23 110 0.0 0.0 0.00 0.00 0.00 83 1016.2
20260901024532 24 110 0.0 0.0 0.00 0.00 0.00 82 1016.2
20260901023028 24 110 0.0 0.0 0.00 0.00 0.00 82 1016.2
20260901021530 24 110 0.0 0.0 0.00 0.00 0.00 81 1016.1
20260901020034 25 110 0.0 0.0 0.00 0.00 0.00 80 1015.9
20260901014526 25 110 0.0 0.0 0.00 0.00 0.00 80 1015.9
20260901013026 25 110 0.0 0.0 0.00 0.00 0.00 80 1015.7
20260901011528 26 110 0.0 0.0 0.00 0.00 0.00 81 1015.4
20260901010025 26 110 0.0 0.0 0.00 0.00 0.00 78 1015.2
20260901004525 26 110 0.0 0.0 0.00 0.00 0.00 76 1015.1
20260901003031 27 110 0.0 0.0 0.00 0.00 0.00 76 1015.0
20260901001528 28 110 0.0 0.0 0.00 0.00 0.00 71 1014.9
20260901000022 28 110 0.0 0.0 0.00 0.00 0.00 68 1014.8
20260831234522 28 110 0.0 0.0 0.00 0.00 0.00 66 1014.8
20260831233020 29 110 0.0 0.0 0.00 0.00 0.00 65 1014.9
20260831231530 30 110 0.0 0.0 0.00 0.00 0.00 64 1015.0
20260831230027 30 110 0.0 0.0 0.00 0.00 0.00 63 1014.9
20260831224543 30 110 0.0 0.0 0.00 0.00 0.00 61 1015.0
20260831223018 30 110 0.0 0.0 0.00 0.00 0.00 61 1015.0
20260831221516 30 80 0.0 1.6 0.00 0.00 0.00 61 1015.1
20260831220015 30 48 0.0 1.6 0.00 0.00 0.00 62 1015.2
20260831214513 30 49 0.0 0.0 0.00 0.00 0.00 60 1015.3
20260831213014 31 49 0.0 1.6 0.00 0.00 0.00 58 1015.4
20260831211512 31 92 0.0 1.6 0.00 0.00 0.00 59 1015.4
20260831210016 30 114 0.0 1.6 0.00 0.00 0.00 60 1015.5
20260831204510 31 291 0.0 4.8 0.00 0.00 0.00 60 1015.5
20260831203020 31 54 0.0 0.0 0.00 0.00 0.00 61 1015.7
20260831201506 30 97 0.0 0.0 0.00 0.00 0.00 59 1015.8
20260831200005 30 312 0.0 0.0 0.00 0.00 0.00 61 1015.8
20260831194508 30 44 0.0 0.0 0.00 0.00 0.00 64 1016.2
20260831193006 30 44 0.0 1.6 0.00 0.00 0.00 63 1016.4
20260831191503 30 24 0.0 4.8 0.00 0.00 0.00 63 1016.4
20260831190003 30 49 0.0 1.6 0.00 0.00 0.00 64 1016.6
20260831184601 30 79 0.0 1.6 0.00 0.00 0.00 63 1016.7
20260831183101 30 7 0.0 1.6 0.00 0.00 0.00 65 1017.0
20260831181600 30 8 0.0 3.2 0.00 0.00 0.00 64 1017.2
20260831180058 31 39 0.0 0.0 0.00 0.00 0.00 68 1017.3
20260831174557 31 38 0.0 0.0 0.00 0.00 0.00 68 1017.4
20260831173056 31 35 0.0 3.2 0.00 0.00 0.00 68 1017.6
20260831171551 29 210 0.0 3.2 0.00 0.00 0.00 69 1017.7
20260831170049 29 63 0.0 1.6 0.00 0.00 0.00 71 1017.9
20260831164546 28 96 1.6 4.8 0.00 0.00 0.00 73 1018.1
20260831163044 28 117 0.0 3.2 0.00 0.00 0.00 75 1018.3
20260831161541 27 79 0.0 1.6 0.00 0.00 0.00 79 1018.3
20260831160042 27 328 0.0 3.2 0.00 0.00 0.00 80 1018.4
20260831154601 27 24 0.0 0.0 0.00 0.00 0.00 83 1018.6
20260831153035 27 24 0.0 1.6 0.00 0.00 0.00 83 1018.6
20260831151537 26 330 0.0 1.6 0.00 0.00 0.00 85 1018.6
20260831150030 26 349 0.0 0.0 0.00 0.00 0.00 86 1018.6
20260831144529 26 349 0.0 1.6 0.00 0.00 0.00 86 1018.5
20260831143025 25 338 0.0 1.6 0.00 0.00 0.00 88 1018.4
20260831141521 25 4 0.0 0.0 0.00 0.00 0.00 90 1018.4
20260831140018 23 10 0.0 0.0 0.00 0.00 0.00 92 1018.5
20260831134515 23 63 0.0 0.0 0.00 0.00 0.00 96 1018.4
20260831133013 23 63 0.0 0.0 0.00 0.00 0.00 97 1018.5
20260831131512 22 63 0.0 0.0 0.00 0.00 0.00 98 1018.6
20260831130011 22 63 0.0 0.0 0.00 0.00 0.00 98 1018.6
20260831124523 21 63 0.0 0.0 0.00 0.00 0.00 98 1018.5
20260831123009 21 63 0.0 0.0 0.00 0.00 0.00 98 1018.4
20260831121509 21 63 0.0 0.0 0.00 0.00 0.00 98 1018.3
20260831120004 21 63 0.0 0.0 0.00 0.00 0.00 98 1018.0
20260831114503 21 63 0.0 0.0 0.00 0.00 0.00 97 1017.8
20260831113002 21 63 0.0 0.0 0.00 0.00 0.00 97 1017.7
20260831111601 21 63 0.0 0.0 0.00 0.00 0.00 97 1017.6
20260831110105 21 63 0.0 0.0 0.00 0.00 0.00 97 1017.5
20260831104557 21 63 0.0 0.0 0.00 0.00 0.00 97 1017.3
20260831103056 21 63 0.0 0.0 0.00 0.00 0.00 97 1017.4
20260831101600 21 63 0.0 0.0 0.00 0.00 0.00 97 1017.0
20260831100104 21 63 0.0 0.0 0.00 0.00 0.00 97 1016.9
20260831094605 21 63 0.0 0.0 0.00 0.00 0.00 97 1016.8
20260831093053 21 63 0.0 0.0 0.00 0.00 0.00 97 1016.9
20260831091553 21 63 0.0 0.0 0.00 0.00 0.00 97 1016.9
20260831090048 21 63 0.0 0.0 0.00 0.00 0.00 96 1016.8
20260831084548 21 63 0.0 0.0 0.00 0.00 0.00 97 1016.7
20260831083045 21 63 0.0 0.0 0.00 0.00 0.00 96 1016.7
20260831081542 21 63 0.0 0.0 0.00 0.00 0.00 96 1016.7
20260831080041 21 63 0.0 0.0 0.00 0.00 0.00 96 1016.7